weather.gov     
National Weather Service

Terminal Aerodrome Forecast
NWS Homepage
This page is being discontinued on March 12, 2014.
The same data is available at this site. Please update your bookmarks.
Thank you, and we apologize for the inconvenience.
Please send an email to SR-SRH.Webmaster@noaa.gov with any concerns.


Current Version
Previous Version:    01  02  03  04  05  06  07  08  09  10  11  12  13  14  15  16  17  18  19  20  21  22  23  24  25  26  27  28  29  30  
   31  32  33  34  35  36  37  38  39  40  41  42  43  44  45  46  47  
[Printable]
211
FTUS42 KFFC 251737
TAFFTY
TAF
KFTY 251737Z 2518/2618 33007KT P6SM SCT120 BKN250
     FM260100 31004KT P6SM OVC080
     FM260400 32005KT P6SM -RA OVC030
     FM260700 31005KT 5SM -RA BR OVC015
     FM261200 31006KT 6SM BR OVC025
     FM261500 30006KT P6SM SCT035=


211
FTUS42 KFFC 251737
TAFFTY
TAF
KFTY 251737Z 2518/2618 33007KT P6SM SCT120 BKN250
     FM260100 31004KT P6SM OVC080
     FM260400 32005KT P6SM -RA OVC030
     FM260700 31005KT 5SM -RA BR OVC015
     FM261200 31006KT 6SM BR OVC025
     FM261500 30006KT P6SM SCT035=




U.S. Dept. of Commerce
NOAA National Weather Service
1325 East West Highway
Silver Spring, MD 20910
E-mail: w-nws.webmaster@noaa.gov
Page last modified: May 16, 2007
NATIONAL WEATHER SERVICE: for Safety, for Work, for Fun - FOR LIFE